Home > Weather > Augusta > Past weeks

Flag for U.S.A. Weather for the Past 2 Weeks in Augusta, Georgia, U.S.A.

Now
46 °F

Overcast.


Feels Like: 46 °F
Forecast: 37 / 55 °F
Wind: No wind

Location: Daniel Field

Current Time: Feb 6, 2016 at 9:31:01 PM

Latest Report: Feb 6, 2016 at 7:53 PM


Visibility: 10 mi

Pressure: 30.24 "Hg

Humidity: 50%

Dew point: 28 °F

Location of AugustaLocation

Historic Weather in Augusta — Graph

°F

Augusta Temperature Yesterday

Maximum temperature yesterday: 53 °F (at 2:53 PM)
Minimum temperature yesterday: 37 °F (at 7:53 AM)
Average temperature yesterday: 45 °F

High & Low Weather Summary for the Past Weeks

 TemperatureHumidityPressure
High79 °F (Feb 2, 2:53 PM)94% (Feb 3, 3:00 PM)30.40 "Hg (Feb 3, 3:00 PM)
Low28 °F (Jan 24, 5:53 AM)24% (Jan 29, 4:53 PM)29.63 "Hg (Jan 23, 1:53 AM)
Average51 °F65%30.07 "Hg
* Reported Jan 22 7:53 PM — Feb 6 7:53 PM, Augusta, Weather by CustomWeather, © 2016

Note: Actual official high and low records may vary slightly from our data, if they occured in-between our weather recording intervals... More about our weather records

Advertising

Augusta Weather History for the Previous 24 Hours

 ConditionsComfort  
Time TempWeatherWind HumidityBarometerVisibility
7:53 PM
Sat, Feb 6
46 °FOvercast.No wind50%30.24 "Hg10 mi
6:53 PM47 °FOvercast.5 mph48%30.25 "Hg10 mi
5:53 PM47 °FOvercast.7 mph44%30.26 "Hg10 mi
4:53 PM50 °FOvercast.7 mph32%30.27 "Hg10 mi
3:53 PM51 °FOvercast.8 mph31%30.26 "Hg10 mi
2:53 PM51 °FOvercast.6 mph32%30.27 "Hg10 mi
1:53 PM54 °FBroken clouds.10 mph29%30.26 "Hg10 mi
12:53 PM51 °FPartly sunny.9 mph32%30.31 "Hg10 mi
11:53 AM50 °FPartly sunny.13 mph29%30.36 "Hg10 mi
10:53 AM48 °FOvercast.12 mph34%30.38 "Hg10 mi
9:53 AM44 °FScattered clouds.6 mph47%30.39 "Hg10 mi
8:53 AM39 °FSunny.6 mph57%30.37 "Hg10 mi
7:53 AM35 °FSunny.6 mph67%30.37 "Hg10 mi
6:53 AM36 °FClear.6 mph64%30.39 "Hg10 mi
5:53 AM37 °FClear.6 mph52%30.39 "Hg10 mi
4:53 AM35 °FClear.3 mph61%30.39 "Hg10 mi
3:53 AM35 °FClear.No wind61%30.40 "Hg10 mi
2:53 AM35 °FClear.No wind61%30.37 "Hg10 mi
1:53 AM39 °FClear.3 mph46%30.37 "Hg10 mi
12:53 AM40 °FClear.3 mph47%30.38 "Hg10 mi
11:53 PM
Fri, Feb 5
41 °FClear.6 mph43%30.38 "Hg10 mi
10:53 PM42 °FClear.6 mph39%30.40 "Hg10 mi
9:53 PM44 °FClear.5 mph37%30.39 "Hg10 mi
Weather by CustomWeather, © 2016

See weather overviewHow to use our weather pages